Location: Newark
(35.2672°N, 80.7344°W)
Time: 19:04:14
(UTC+00:00)

Transit 2A Rocket - Pass Details

Date: 01 February 2020
Orbit: 592 x 911 km, 66.7° (Epoch: 16 February)

Event Time Altitude Azimuth Distance (km) Brightness Sun altitude
Rises 16:15:52 0° 356° (N) 3,055 7.6 34.2°
Reaches altitude 10° 16:20:11 10° 32° (NNE) 2,224 7.2 34.6°
Maximum altitude 16:21:32 11° 48° (NE) 2,186 7.3 34.7°
Drops below altitude 10° 16:22:55 10° 64° (ENE) 2,279 7.5 34.8°
Sets 16:27:32 0° 99° (E) 3,299 8.6 35.1°
